Regional Weather Roundup
Issued by NWS

Home | Current Version | Previous Version | Text Only | Print | Product List | Glossary On
Versions: 1 2 3 4 5 6 7 8 9 10 11 12 13 14 15 16 17 18 19 20 21 22 23 24 25 26 27 28 29 30 31 32 33 34 35 36 37 38 39 40 41 42 43 44 45 46 47 48 49 50
000
ASUS44 KBMX 280810
RWRAL

ALABAMA REGIONAL WEATHER ROUNDUP
NATIONAL WEATHER SERVICE BIRMINGHAM AL
300 AM CDT WED JUN 28 2017

NOTE: "FAIR" INDICATES FEW OR NO CLOUDS BELOW 12,000 FEET
WITH NO SIGNIFICANT WEATHER AND/OR OBSTRUCTIONS TO VISIBILITY.

THE REMARK "TC" DENOTES TEMPERATURE IN DEGREES CELSIUS.

ALZ001>011-014-016>018-020-280900-
NORTH ALABAMA

CITY           SKY/WX    TMP DP  RH WIND       PRES   REMARKS
MUSCLE SHOALS  CLEAR     63  60  90 CALM      30.09F
HUNTSVILLE     CLEAR     65  61  87 E3        30.09F
DECATUR        PTCLDY    60  59  96 CALM      30.09F
HALEYVILLE     NOT AVBL
GADSDEN        CLEAR     60  59  96 CALM      30.10S
$$

ALZ012-013-022-023-030>036-040>044-280900-
WEST CENTRAL ALABAMA

CITY           SKY/WX    TMP DP  RH WIND       PRES   REMARKS
TUSCALOOSA     CLEAR     68  67  96 CALM      30.05F
$$

ALZ015-024>027-033>036-040>044-280900-
CENTRAL ALABAMA

CITY           SKY/WX    TMP DP  RH WIND       PRES   REMARKS
BIRMINGHAM     CLEAR     71  57  61 NE6       30.10S
MONTGOMERY     PTCLDY    72  65  78 CALM      30.05S
SHELBY CO ARPT PTCLDY    69  62  78 NE3       30.08S
MAXWELL AFB    NOT AVBL
GREENVILLE     FAIR      70  64  81 CALM      30.04S
$$

ALZ019-021-028-029-037-038-045>048-280900-
EAST CENTRAL ALABAMA

CITY           SKY/WX    TMP DP  RH WIND       PRES   REMARKS
ANNISTON       CLEAR     65  60  84 CALM      30.09F
ALEXANDER CITY CLOUDY    64  62  94 CALM      30.09S
AUBURN         MOCLDY    69  59  70 N8        30.10S
$$

ALZ051>064-280900-
SOUTHWEST ALABAMA

CITY           SKY/WX    TMP DP  RH WIND       PRES   REMARKS
MOBILE         PTCLDY    74  68  81 E7        30.01F
BROOKLEY FIELD CLOUDY    78  71  79 NE6       30.01F
EVERGREEN      CLOUDY    67  65  93 CALM      30.03F FOG
$$

ALZ049-050-065>069-280900-
SOUTHEAST ALABAMA

CITY           SKY/WX    TMP DP  RH WIND       PRES   REMARKS
DOTHAN         CLOUDY    72  70  93 NE3       30.07S
OZARK          MOCLDY    70  67  92 NE3       30.03S
TROY           CLOUDY    67  67 100 CALM      30.06S
EUFAULA        FAIR      69  67  93 CALM      30.04F
$$



USA.gov is the U.S. government's official web portal to all federal, state and local government web resources and services.